Location: Shepherdstown, WV
(39.4326°N, 77.8042°W)
Time: 05:44:06
(UTC-04:00)

Vanguard 3 - Pass Details

Date: 11 August 2021
Orbit: 510 x 3260 km, 33.3° (Epoch: 21 September)

Event Time Altitude Azimuth Distance (km) Brightness Sun altitude
Rises 16:42:13 0° 246° (WSW) 3,976 11.6 39.0°
Reaches altitude 10° 16:44:30 10° 243° (WSW) 3,284 11.4 38.6°
Maximum altitude 16:53:00 60° 165° (SSE) 2,090 9.7 37.0°
Drops below altitude 10° 17:08:03 10° 91° (E) 5,564 11.0 34.1°
Sets 17:13:11 0° 89° (E) 6,878 11.4 33.1°
